When you browse on this site, cookies collect data to enhance your experience and personalize the content and advertising you see.
Visit our Privacy Policy to learn more. By continuing to use the site, you agree to this use of cookies and data.
EN

Hourly Weather Galata

Today, 16 July, Thursday

Time Temperature Precipitation Wind Pressure Humidity
00:00 +18°C° 0 mm 1 mps 755 mmHg 69%
01:00 +18°C° 0 mm 1 mps 754 mmHg 70%
02:00 +18°C° 0 mm 1 mps 754 mmHg 72%
03:00 +18°C° 0 mm 1 mps 754 mmHg 71%
04:00 +18°C° 0 mm 1 mps 754 mmHg 70%
05:00 +18°C° 0 mm 1 mps 754 mmHg 69%
06:00 +20°C° 0 mm 1 mps 754 mmHg 62%
07:00 +22°C° 0 mm 1 mps 754 mmHg 56%
08:00 +24°C° 0 mm 1 mps 754 mmHg 49%
09:00 +25°C° 0 mm 1 mps 754 mmHg 46%
10:00 +26°C° 0 mm 2 mps 754 mmHg 43%
11:00 +27°C° 0 mm 2 mps 754 mmHg 40%
12:00 +27°C° 0 mm 3 mps 753 mmHg 39%
13:00 +28°C° 0 mm 3 mps 753 mmHg 38%
14:00 +28°C° 0 mm 3 mps 753 mmHg 38%
15:00 +28°C° 0 mm 4 mps 753 mmHg 40%
16:00 +27°C° 0 mm 4 mps 752 mmHg 43%
17:00 +26°C° 0 mm 4 mps 752 mmHg 46%
18:00 +23°C° 0 mm 4 mps 752 mmHg 51%
19:00 +22°C° 0 mm 3 mps 752 mmHg 57%
20:00 +20°C° 0 mm 3 mps 752 mmHg 62%
21:00 +19°C° 0 mm 2 mps 752 mmHg 64%
22:00 +20°C° 0 mm 1 mps 752 mmHg 66%
23:00 +19°C° 0 mm 1 mps 752 mmHg 68%

Tomorrow, 17 July, Friday

Time Temperature Precipitation Wind Pressure Humidity
00:00 +19°C° 0 mm 1 mps 752 mmHg 69%
01:00 +18°C° 0 mm 1 mps 752 mmHg 70%
02:00 +18°C° 0 mm 1 mps 752 mmHg 70%
03:00 +18°C° 0 mm 1 mps 752 mmHg 69%
04:00 +18°C° 0 mm 1 mps 752 mmHg 68%
05:00 +18°C° 0 mm 1 mps 752 mmHg 67%
06:00 +21°C° 0 mm 1 mps 752 mmHg 60%
07:00 +23°C° 0 mm 1 mps 752 mmHg 53%
08:00 +25°C° 0 mm 1 mps 753 mmHg 46%
09:00 +27°C° 0 mm 1 mps 753 mmHg 44%
10:00 +28°C° 0 mm 2 mps 753 mmHg 42%
11:00 +29°C° 0 mm 3 mps 753 mmHg 40%
12:00 +29°C° 0 mm 3 mps 752 mmHg 41%
13:00 +29°C° 0 mm 4 mps 752 mmHg 41%
14:00 +29°C° 0 mm 4 mps 752 mmHg 42%
15:00 +28°C° 0 mm 4 mps 752 mmHg 43%
16:00 +28°C° 0 mm 4 mps 752 mmHg 45%
17:00 +27°C° 0 mm 4 mps 752 mmHg 46%
18:00 +25°C° 0 mm 3 mps 752 mmHg 53%
19:00 +22°C° 0 mm 3 mps 752 mmHg 59%
20:00 +20°C° 0 mm 2 mps 752 mmHg 66%
21:00 +20°C° 0 mm 2 mps 752 mmHg 69%
22:00 +20°C° 0 mm 1 mps 752 mmHg 71%
23:00 +20°C° 0 mm 1 mps 752 mmHg 74%

Day after tomorrow, 18 July, Saturday

Time Temperature Precipitation Wind Pressure Humidity
00:00 +19°C° 0 mm 1 mps 752 mmHg 74%
01:00 +19°C° 0 mm 1 mps 752 mmHg 73%
02:00 +18°C° 0 mm 2 mps 752 mmHg 73%
03:00 +18°C° 0 mm 2 mps 752 mmHg 73%
04:00 +18°C° 0 mm 2 mps 752 mmHg 73%
05:00 +17°C° 0 mm 2 mps 752 mmHg 73%
06:00 +20°C° 0 mm 3 mps 752 mmHg 66%
07:00 +22°C° 0 mm 3 mps 752 mmHg 59%
08:00 +26°C° 0 mm 4 mps 752 mmHg 52%
09:00 +27°C° 0 mm 4 mps 752 mmHg 49%
10:00 +29°C° 0 mm 5 mps 752 mmHg 47%
11:00 +30°C° 0 mm 6 mps 752 mmHg 44%
12:00 +30°C° 0 mm 6 mps 752 mmHg 44%
13:00 +30°C° 0 mm 7 mps 751 mmHg 45%
14:00 +30°C° 0 mm 7 mps 751 mmHg 45%
15:00 +29°C° 0 mm 7 mps 751 mmHg 51%
16:00 +28°C° 0 mm 7 mps 751 mmHg 56%
17:00 +28°C° 0 mm 7 mps 751 mmHg 62%
18:00 +26°C° 0 mm 6 mps 751 mmHg 71%
19:00 +23°C° 0 mm 5 mps 751 mmHg 81%
20:00 +21°C° 0 mm 4 mps 751 mmHg 91%
21:00 +21°C° 0 mm 4 mps 751 mmHg 92%
22:00 +21°C° 0 mm 3 mps 751 mmHg 94%
23:00 +20°C° 0 mm 3 mps 751 mmHg 95%

19 July, Sunday

Time Temperature Precipitation Wind Pressure Humidity
00:00 +20°C° 0 mm 3 mps 751 mmHg 95%
01:00 +20°C° 0 mm 3 mps 751 mmHg 95%
02:00 +20°C° 0 mm 2 mps 751 mmHg 96%
03:00 +20°C° 0.2 mm 3 mps 751 mmHg 95%
04:00 +19°C° 0.2 mm 4 mps 751 mmHg 94%
05:00 +19°C° 0.2 mm 4 mps 751 mmHg 93%
06:00 +20°C° 0 mm 5 mps 751 mmHg 87%
07:00 +21°C° 0 mm 5 mps 751 mmHg 80%
08:00 +22°C° 0 mm 6 mps 752 mmHg 74%
09:00 +25°C° 0 mm 5 mps 752 mmHg 67%
10:00 +27°C° 0 mm 4 mps 752 mmHg 61%
11:00 +29°C° 0 mm 4 mps 752 mmHg 54%
12:00 +29°C° 0 mm 3 mps 752 mmHg 52%
13:00 +30°C° 0 mm 3 mps 752 mmHg 51%
14:00 +30°C° 0 mm 3 mps 752 mmHg 49%
15:00 +30°C° 0 mm 3 mps 751 mmHg 49%
16:00 +30°C° 0 mm 2 mps 751 mmHg 49%
17:00 +30°C° 0 mm 2 mps 751 mmHg 48%
18:00 +28°C° 0 mm 2 mps 751 mmHg 58%
19:00 +26°C° 0 mm 1 mps 751 mmHg 68%
20:00 +24°C° 0 mm 1 mps 752 mmHg 77%
21:00 +23°C° 0 mm 1 mps 752 mmHg 78%
22:00 +23°C° 0 mm 1 mps 752 mmHg 79%
23:00 +22°C° 0 mm 1 mps 752 mmHg 80%

20 July, Monday

Time Temperature Precipitation Wind Pressure Humidity
00:00 +20°C° 0 mm 2 mps 752 mmHg 78%
01:00 +20°C° 0 mm 2 mps 752 mmHg 76%
02:00 +20°C° 0 mm 3 mps 752 mmHg 75%
03:00 +19°C° 0 mm 3 mps 752 mmHg 74%
04:00 +19°C° 0 mm 3 mps 752 mmHg 73%
05:00 +18°C° 0 mm 3 mps 752 mmHg 72%
06:00 +21°C° 0 mm 3 mps 752 mmHg 64%
07:00 +23°C° 0 mm 4 mps 752 mmHg 56%
08:00 +26°C° 0 mm 4 mps 752 mmHg 48%
09:00 +28°C° 0 mm 4 mps 752 mmHg 45%
10:00 +29°C° 0 mm 4 mps 752 mmHg 42%
11:00 +32°C° 0 mm 4 mps 752 mmHg 40%
12:00 +32°C° 0 mm 4 mps 752 mmHg 38%
13:00 +33°C° 0 mm 4 mps 752 mmHg 37%
14:00 +33°C° 0 mm 4 mps 751 mmHg 35%
15:00 +33°C° 0 mm 4 mps 751 mmHg 36%
16:00 +32°C° 0 mm 4 mps 751 mmHg 36%
17:00 +32°C° 0 mm 4 mps 751 mmHg 37%
18:00 +29°C° 0 mm 4 mps 751 mmHg 42%
19:00 +27°C° 0 mm 4 mps 751 mmHg 47%
20:00 +26°C° 0 mm 3 mps 751 mmHg 53%
21:00 +25°C° 0 mm 4 mps 751 mmHg 53%
22:00 +23°C° 0 mm 4 mps 751 mmHg 53%
23:00 +22°C° 0 mm 4 mps 752 mmHg 54%

21 July, Tuesday

Time Temperature Precipitation Wind Pressure Humidity
00:00 +22°C° 0 mm 5 mps 752 mmHg 57%
01:00 +21°C° 0 mm 5 mps 752 mmHg 60%
02:00 +21°C° 0 mm 6 mps 752 mmHg 62%
03:00 +20°C° 0 mm 6 mps 752 mmHg 67%
04:00 +20°C° 0 mm 6 mps 752 mmHg 71%
05:00 +19°C° 0 mm 6 mps 752 mmHg 76%
06:00 +21°C° 0 mm 6 mps 752 mmHg 71%
07:00 +23°C° 0 mm 6 mps 752 mmHg 65%
08:00 +24°C° 0 mm 6 mps 752 mmHg 60%
09:00 +27°C° 0 mm 5 mps 752 mmHg 53%
10:00 +29°C° 0 mm 4 mps 753 mmHg 46%
11:00 +32°C° 0 mm 4 mps 753 mmHg 39%
12:00 +33°C° 0 mm 4 mps 752 mmHg 37%
13:00 +33°C° 0 mm 3 mps 752 mmHg 34%
14:00 +34°C° 0 mm 3 mps 752 mmHg 32%
15:00 +34°C° 0 mm 3 mps 752 mmHg 32%
16:00 +34°C° 0 mm 4 mps 752 mmHg 32%
17:00 +34°C° 0 mm 4 mps 752 mmHg 32%
18:00 +30°C° 0 mm 3 mps 752 mmHg 41%
19:00 +28°C° 0 mm 3 mps 752 mmHg 51%
20:00 +25°C° 0 mm 3 mps 752 mmHg 60%
21:00 +25°C° 0 mm 3 mps 752 mmHg 63%
22:00 +24°C° 0 mm 2 mps 753 mmHg 65%
23:00 +23°C° 0 mm 2 mps 753 mmHg 68%
Show more